TimeEDT,TemperatureF,Dew PointF,Humidity,Sea Level PressureIn,VisibilityMPH,Wind Direction,Wind SpeedMPH,Gust SpeedMPH,PrecipitationIn,Events,Conditions,WindDirDegrees,DateUTC
12:15 AM,43.7,43.3,99,30.23,10.0,Calm,Calm,-,N/A,,Overcast,0,2012-10-09 04:15:00
12:35 AM,43.7,43.2,98,30.22,10.0,Calm,Calm,-,N/A,,Overcast,0,2012-10-09 04:35:00
12:55 AM,43.3,43.2,99,30.22,7.0,Calm,Calm,-,N/A,,Overcast,0,2012-10-09 04:55:00
1:15 AM,43.7,43.2,98,30.22,10.0,Calm,Calm,-,N/A,,Overcast,0,2012-10-09 05:15:00
1:35 AM,43.7,43.3,99,30.22,10.0,Calm,Calm,-,N/A,,Overcast,0,2012-10-09 05:35:00
1:55 AM,43.9,43.5,99,30.22,7.0,Calm,Calm,-,N/A,,Overcast,0,2012-10-09 05:55:00
2:15 AM,43.7,43.3,99,30.22,5.0,Calm,Calm,-,N/A,,Overcast,0,2012-10-09 06:15:00
2:55 AM,43.7,43.3,99,30.21,7.0,Calm,Calm,-,N/A,,Overcast,0,2012-10-09 06:55:00
3:15 AM,43.7,43.3,99,30.21,4.0,Calm,Calm,-,N/A,,Overcast,0,2012-10-09 07:15:00
3:55 AM,43.7,43.7,100,30.22,5.0,Calm,Calm,-,N/A,,Overcast,0,2012-10-09 07:55:00
4:15 AM,43.7,43.7,100,30.21,7.0,Calm,Calm,-,N/A,,Overcast,0,2012-10-09 08:15:00
4:35 AM,43.7,43.7,100,30.21,7.0,Calm,Calm,-,N/A,,Overcast,0,2012-10-09 08:35:00
4:55 AM,43.9,43.7,99,30.21,7.0,Calm,Calm,-,N/A,,Overcast,0,2012-10-09 08:55:00
5:15 AM,44.1,42.3,93,30.21,10.0,Calm,Calm,-,N/A,,Overcast,0,2012-10-09 09:15:00
5:35 AM,44.1,42.4,94,30.21,10.0,Calm,Calm,-,N/A,,Overcast,0,2012-10-09 09:35:00
5:55 AM,44.1,42.6,95,30.21,10.0,Calm,Calm,-,N/A,,Overcast,0,2012-10-09 09:55:00
6:15 AM,43.9,43.0,97,30.21,10.0,Calm,Calm,-,N/A,,Overcast,0,2012-10-09 10:15:00
6:35 AM,44.2,42.3,93,30.22,10.0,Calm,Calm,-,N/A,,Overcast,0,2012-10-09 10:35:00
6:55 AM,44.2,42.4,93,30.23,10.0,Calm,Calm,-,N/A,,Overcast,0,2012-10-09 10:55:00
7:15 AM,44.1,43.5,98,30.23,10.0,Calm,Calm,-,N/A,,Overcast,0,2012-10-09 11:15:00
7:35 AM,44.6,42.1,91,30.23,10.0,Calm,Calm,-,N/A,,Overcast,0,2012-10-09 11:35:00
7:55 AM,44.6,42.8,93,30.24,10.0,Calm,Calm,-,N/A,,Overcast,0,2012-10-09 11:55:00
8:15 AM,44.6,42.6,93,30.24,10.0,Calm,Calm,-,N/A,,Overcast,0,2012-10-09 12:15:00
8:35 AM,44.6,43.3,95,30.24,10.0,Calm,Calm,-,N/A,,Overcast,0,2012-10-09 12:35:00
8:55 AM,45.0,43.0,93,30.25,10.0,Calm,Calm,-,N/A,,Overcast,0,2012-10-09 12:55:00
9:15 AM,45.3,42.6,90,30.25,10.0,Calm,Calm,-,N/A,,Overcast,0,2012-10-09 13:15:00
9:35 AM,45.5,42.6,90,30.25,10.0,Calm,Calm,-,N/A,,Overcast,0,2012-10-09 13:35:00
9:55 AM,45.7,42.8,90,30.25,10.0,Calm,Calm,-,N/A,,Overcast,0,2012-10-09 13:55:00
10:15 AM,46.8,43.3,88,30.25,10.0,Calm,Calm,-,N/A,,Overcast,0,2012-10-09 14:15:00
10:35 AM,47.3,43.3,86,30.24,10.0,Calm,Calm,-,N/A,,Overcast,0,2012-10-09 14:35:00
10:55 AM,48.6,43.5,83,30.23,10.0,East,3.5,-,N/A,,Overcast,90,2012-10-09 14:55:00
11:15 AM,48.7,43.7,83,30.23,10.0,Calm,Calm,-,N/A,,Overcast,0,2012-10-09 15:15:00
11:35 AM,50.0,44.4,81,30.23,10.0,Calm,Calm,-,N/A,,Overcast,0,2012-10-09 15:35:00
11:55 AM,50.0,43.9,79,30.22,10.0,Calm,Calm,-,N/A,,Mostly Cloudy,0,2012-10-09 15:55:00
12:15 PM,52.9,45.5,76,30.21,10.0,Calm,Calm,-,N/A,,Mostly Cloudy,0,2012-10-09 16:15:00
12:35 PM,51.4,44.4,77,30.21,10.0,Calm,Calm,-,N/A,,Mostly Cloudy,0,2012-10-09 16:35:00
12:55 PM,52.7,44.2,73,30.20,10.0,East,3.5,-,N/A,,Overcast,80,2012-10-09 16:55:00
1:15 PM,52.2,44.6,75,30.20,10.0,Calm,Calm,-,N/A,,Overcast,0,2012-10-09 17:15:00
1:35 PM,54.3,45.0,71,30.18,10.0,ENE,5.8,-,N/A,,Overcast,70,2012-10-09 17:35:00
1:55 PM,53.8,43.9,69,30.18,10.0,Calm,Calm,-,N/A,,Overcast,0,2012-10-09 17:55:00
2:15 PM,53.6,43.2,68,30.17,10.0,Calm,Calm,-,N/A,,Overcast,0,2012-10-09 18:15:00
2:35 PM,54.5,44.2,68,30.16,10.0,NNE,3.5,-,N/A,,Overcast,20,2012-10-09 18:35:00
2:55 PM,54.9,42.8,64,30.15,10.0,SE,3.5,-,N/A,,Overcast,140,2012-10-09 18:55:00
3:15 PM,54.9,42.8,64,30.15,10.0,Calm,Calm,-,N/A,,Overcast,0,2012-10-09 19:15:00
3:35 PM,54.5,41.4,61,30.15,10.0,Calm,Calm,-,N/A,,Mostly Cloudy,0,2012-10-09 19:35:00
3:55 PM,55.0,42.8,63,30.14,10.0,WSW,3.5,-,N/A,,Mostly Cloudy,240,2012-10-09 19:55:00
4:15 PM,54.7,42.4,63,30.14,10.0,Calm,Calm,-,N/A,,Overcast,0,2012-10-09 20:15:00
4:35 PM,54.5,43.7,67,30.14,10.0,ESE,4.6,-,N/A,,Overcast,120,2012-10-09 20:35:00
4:55 PM,54.5,42.1,63,30.14,10.0,South,4.6,-,N/A,,Overcast,190,2012-10-09 20:55:00
5:15 PM,54.5,42.4,64,30.13,10.0,South,4.6,-,N/A,,Overcast,170,2012-10-09 21:15:00
5:35 PM,53.8,42.8,66,30.13,10.0,Calm,Calm,-,N/A,,Overcast,0,2012-10-09 21:35:00
5:55 PM,54.1,43.7,68,30.12,10.0,SSE,3.5,-,N/A,,Overcast,150,2012-10-09 21:55:00
6:15 PM,53.8,44.2,70,30.12,10.0,SSE,3.5,-,N/A,,Overcast,160,2012-10-09 22:15:00
6:35 PM,53.6,44.6,72,30.11,10.0,South,3.5,-,N/A,,Overcast,170,2012-10-09 22:35:00
6:55 PM,52.7,45.1,75,30.11,10.0,Calm,Calm,-,N/A,,Overcast,0,2012-10-09 22:55:00
7:15 PM,52.0,45.5,79,30.11,10.0,Calm,Calm,-,N/A,,Overcast,0,2012-10-09 23:15:00
7:35 PM,51.1,46.2,83,30.11,10.0,Calm,Calm,-,N/A,,Overcast,0,2012-10-09 23:35:00
7:55 PM,51.3,45.7,81,30.10,10.0,SE,3.5,-,N/A,,Overcast,140,2012-10-09 23:55:00
8:15 PM,50.5,45.5,83,30.10,10.0,Calm,Calm,-,N/A,,Scattered Clouds,0,2012-10-10 00:15:00
8:35 PM,50.4,45.5,83,30.11,10.0,Calm,Calm,-,N/A,,Clear,0,2012-10-10 00:35:00
8:55 PM,47.5,45.5,93,30.10,10.0,Calm,Calm,-,N/A,,Clear,0,2012-10-10 00:55:00
9:15 PM,47.5,45.7,93,30.10,10.0,Calm,Calm,-,N/A,,Clear,0,2012-10-10 01:15:00
9:35 PM,46.4,45.5,97,30.10,10.0,Calm,Calm,-,N/A,,Scattered Clouds,0,2012-10-10 01:35:00
9:55 PM,47.8,45.5,92,30.10,10.0,Calm,Calm,-,N/A,,Scattered Clouds,0,2012-10-10 01:55:00
10:15 PM,47.1,45.9,95,30.10,10.0,Calm,Calm,-,N/A,,Clear,0,2012-10-10 02:15:00
10:35 PM,46.0,44.8,95,30.10,10.0,Calm,Calm,-,N/A,,Clear,0,2012-10-10 02:35:00
10:55 PM,46.4,45.5,97,30.10,10.0,Calm,Calm,-,N/A,,Clear,0,2012-10-10 02:55:00
11:15 PM,46.4,45.1,95,30.10,10.0,Calm,Calm,-,N/A,,Clear,0,2012-10-10 03:15:00
11:35 PM,46.8,45.5,95,30.10,10.0,South,3.5,-,N/A,,Clear,190,2012-10-10 03:35:00
11:55 PM,46.8,45.5,95,30.10,10.0,SW,3.5,-,N/A,,Clear,220,2012-10-10 03:55:00